Location: Unspecified
(0.0000°N, 0.0000°E)
Time: 07:11:39
(UTC+00:00)

ISS - Pass Details

Date: 28 May 2017
Orbit: 401 x 408 km, 51.6° (Epoch: 29 June)

Event Time Altitude Azimuth Distance (km) Brightness Sun altitude
Exits shadow 04:34:52 - 332° (NNW) 1,723 -0.7 -19.1°
Reaches altitude 10° 04:35:33 10° 333° (NNW) 1,443 -1.1 -19.0°
Maximum altitude 04:38:44 61° 54° (NE) 458 -3.4 -18.2°
Drops below altitude 10° 04:41:57 10° 136° (SE) 1,447 -0.8 -17.5°
Sets 04:44:02 0° 139° (SE) 2,306 0.2 -17.0°
